Dean International
Flight School

Career Spotlight

Mika

Mika

Congratulations to Mika from Khazakstan. She recently sent us this photo of her flying an Airbus airliner.

More...
Mika's Success Story
close

Congratulations to Mika from Khazakstan. She recently sent us this photo of her flying an Airbus airliner.

Mario

Mario

My dreams could not have been realized if I wouldn't have been part of the Dean International family.

More...
Mario's Success Story
close

"My dreams could not have been realized if I wouldn't have been part of the Dean International family. Thank you Robert, thanks to all my co-workers, and thanks to all of my students!"

Fernando

Fernando

I am now working as a First Officer at TACA and am enjoying every moment of it.

More...
Fernando's Success Story
close

"Will never forget my time of flight training at Dean International. I am now working as a First Officer at TACA and am enjoying every moment of it."

Alvaro

Alvaro

Because of the flight time I was able to built while instructing, I got the experience needed to apply to an airline in Colombia.

More...
Alvaro's Success Story
close

Dean alumnus Alvaro Londoño currently flies with Tampa Cargo. He says of his experience at Dean: "I want to take this opportunity to thank you for giving me the chance to build my experience and expand my knowledge in Dean International. Because of the flight time I was able to built flight instructing, I got the experience needed to apply to an airline in Colombia."

Ralph

Ralph

Every Aruban student of Dean International has made it into Tiara Air Aruba, that is very nice.

More...
Ralph's Success Story
close

"Next to me is my Co-Pilot, Elison. This picture was taken on our first flight together, which was almost exactly 5 years after I finished at Dean International. [...] Every Aruban student of Dean International has made it into Tiara Air Aruba. [...] The future looks bright here in Aruba."

Rohaan

Rohaan

The [..] staff will all work diligently to help you finish your certificates as safely and efficiently as possible.

More...
Rohaan's Success Story
close

After receiving very hard times from other flight schools [...], I came to Dean International where Robert Dean personally sat down with me and gave me a financial and chronological look into how much remained to finish my private pilot certificate. Through his hard efforts as an instructor and mentor, I was able to finish my private pilot certificate within one week.

Welcome to Dean International

In over two decades, Dean International has educated over 7,000 pilots from all over the world, including over 1,000 students from India alone. By offering a great training experience, a friendly service staff, an ample variety of aircraft, and by improving constantly, we have become one of the largest, most prestigious FAA 141-approved flight schools in North America. Located in Miami, Florida, USA, our flight school offers an ideal location for year-round, "learn to fly" weather, flight training. Dean International is not only well-equipped to provide services to professional trainees but also caters to General Aviation renters. Visit or contact our headquarters at Kendall-Tamiami Executive Airport located in Miami, FL today to learn more about us, or simply read more about our programs if you are an international student interested in joining our school.

Local Airport Information
TAF FOR KTMB (Issued: Thu, January 29th 2015 6:03 AM UTC)
TAF KTMB 290600Z 2906/3006 36008KT P6SM SCT045
      FM291400 09012KT P6SM SCT030
     
METAR FOR KTMB (Issued: Thu, January 29th 2015 9:53 AM UTC):
KTMB 290953Z 01007KT 10SM BKN049 12/09 A3018 RMK AO2 SLP220 T01220094

This weather information is provided by the National Weather Service.
It is automatically refreshed every three minutes.
TAF FOR KHST (Issued: Thu, January 29th 2015 8:08 AM UTC)
TAF KHST 2908/3014 01009KT 9999 BKN040 QNH3015INS
      BECMG 2914/2915 04012KT 9999 SCT045 QNH3014INS
      BECMG 3002/3003 08006KT 9999 BKN030 QNH3013INS TX20/2918Z TN10/2911Z
     
METAR FOR KHST (Issued: Thu, January 29th 2015 9:58 AM UTC):
KHST 290958Z AUTO 33005KT 10SM FEW043 SCT050 12/09 A3018 RMK AO2 SLP223 T01210093

This weather information is provided by the National Weather Service.
It is automatically refreshed every three minutes.
TAF FOR KOPF (Issued: Thu, January 29th 2015 6:03 AM UTC)
TAF KOPF 290600Z 2906/3006 35008KT P6SM FEW040 BKN050
      FM291400 08010KT P6SM SCT030
     
METAR FOR KOPF (Issued: Thu, January 29th 2015 9:53 AM UTC):
KOPF 290953Z AUTO 34004KT 10SM SCT049 11/09 A3018 RMK AO2 SLP222 T01110089 $

This weather information is provided by the National Weather Service.
It is automatically refreshed every three minutes.
TAF FOR KMIA (Issued: Thu, January 29th 2015 6:06 AM UTC)
TAF KMIA 290600Z 2906/3006 33007KT P6SM SCT040
      FM291400 08010KT P6SM SCT030
     
METAR FOR KMIA (Issued: Thu, January 29th 2015 9:53 AM UTC):
KMIA 290953Z 34003KT 10SM SCT045 12/08 A3018 RMK AO2 SLP221 T01220083

This weather information is provided by the National Weather Service.
It is automatically refreshed every three minutes.
Design by Ariel Llizo
© Dean International Inc. 2012